QPF
0.00 0.00 0.00 0.00 0.00 0.00 0.00 0.00 0.00 0.00 0.00 0.00 0.00 0.00 0.00 0.00 0.00 0.00 0.00 0.00 0.00 0.00 0.00 0.00 0.00 0.00 0.00 0.00 0.00 0.00 0.00 0.04 0.02 0.04 0.06 0.03 0.01 0.07 0.00 0.01 0.10 0.53 0.13 0.05
0.00 0.00 0.00 0.00 0.00 0.00 0.00 0.00 0.00 0.00 0.00 0.00 0.00 0.00 0.00 0.00 0.00 0.00 0.00 0.00 0.00 0.00 0.00 0.00 0.00 0.00 0.00 0.00 0.00 0.00 0.00 0.01 0.01 0.01 0.01 0.02 0.04 0.03 0.00 0.02 0.12 0.51 0.28 0.07
0.00 0.00 0.00 0.00 0.00 0.00 0.00 0.00 0.00 0.00 0.00 0.00 0.00 0.00 0.00 0.00 0.00 0.00 0.00 0.00 0.00 0.00 0.00 0.00 0.00 0.00 0.00 0.00 0.00 0.00 0.00 0.00 0.00 0.00 0.03 0.07 0.13 0.08 0.02 0.02 0.25 0.31 0.20 0.04
0.00 0.00 0.00 0.00 0.00 0.00 0.00 0.00 0.00 0.00 0.00 0.00 0.00 0.00 0.00 0.00 0.00 0.00 0.00 0.00 0.00 0.00 0.00 0.00 0.00 0.00 0.00 0.00 0.00 0.00 0.00 0.02 0.01 0.01 0.08 0.11 0.14 0.03 0.02 0.04 0.14 0.35 0.16 0.05
0.00 0.00 0.00 0.00 0.00 0.00 0.00 0.00 0.00 0.00 0.00 0.00 0.00 0.00 0.00 0.00 0.00 0.00 0.00 0.00 0.00 0.00 0.00 0.00 0.00 0.00 0.00 0.00 0.00 0.00 0.00 0.01 0.04 0.03 0.10 0.13 0.20 0.20 0.11 0.10 0.09 0.20 0.12 0.05
0.00 0.00 0.00 0.00 0.00 0.00 0.00 0.00 0.00 0.00 0.00 0.00 0.00 0.00 0.00 0.00 0.00 0.00 0.00 0.00 0.00 0.00 0.00 0.00 0.00 0.00 0.00 0.00 0.00 0.00 0.00 0.00 0.00 0.00 0.03 0.05 0.09 0.21 0.22 0.15 0.13 0.18 0.12 0.03
0.00 0.00 0.00 0.00 0.00 0.00 0.00 0.00 0.00 0.00 0.00 0.00 0.00 0.00 0.00 0.00 0.00 0.00 0.00 0.00 0.00 0.00 0.00 0.00 0.00 0.00 0.00 0.00 0.00 0.00 0.00 0.01 0.00 0.00 0.01 0.00 0.05 0.36 0.18 0.13 0.14 0.13 0.06 0.00
0.00 0.00 0.00 0.00 0.00 0.00 0.00 0.00 0.00 0.00 0.00 0.00 0.00 0.00 0.00 0.00 0.00 0.00 0.00 0.00 0.00 0.00 0.00 0.00 0.00 0.00 0.00 0.00 0.00 0.00 0.00 0.00 0.00 0.00 0.00 0.00 0.03 0.15 0.22 0.13 0.10 0.04 0.00 0.00
0.00 0.00 0.00 0.00 0.00 0.00 0.00 0.00 0.00 0.00 0.00 0.00 0.00 0.00 0.00 0.00 0.00 0.00 0.00 0.00 0.00 0.00 0.00 0.00 0.00 0.00 0.00 0.00 0.00 0.00 0.00 0.00 0.00 0.00 0.00 0.00 0.01 0.04 0.20 0.31 0.10 0.02 0.00 0.00
0.00 0.00 0.00 0.00 0.00 0.00 0.00 0.00 0.00 0.00 0.00 0.00 0.00 0.00 0.00 0.00 0.00 0.00 0.00 0.00 0.00 0.00 0.00 0.00 0.00 0.00 0.00 0.00 0.00 0.00 0.00 0.00 0.00 0.00 0.00 0.00 0.00 0.01 0.07 0.19 0.06 0.02 0.03 0.01
0.00 0.00 0.00 0.00 0.00 0.00 0.00 0.00 0.00 0.00 0.00 0.00 0.00 0.00 0.00 0.00 0.00 0.00 0.00 0.00 0.00 0.00 0.00 0.00 0.00 0.00 0.00 0.00 0.00 0.00 0.00 0.00 0.00 0.00 0.00 0.00 0.00 0.00 0.00 0.01 0.03 0.07 0.06 0.10
0.00 0.00 0.00 0.00 0.00 0.00 0.00 0.00 0.00 0.00 0.00 0.00 0.00 0.00 0.00 0.00 0.00 0.00 0.00 0.00 0.00 0.00 0.00 0.00 0.00 0.00 0.00 0.00 0.00 0.00 0.00 0.00 0.00 0.00 0.00 0.00 0.00 0.00 0.00 0.02 0.00 0.03 0.03 0.07
0.00 0.00 0.00 0.00 0.00 0.00 0.00 0.00 0.00 0.00 0.00 0.00 0.00 0.00 0.00 0.00 0.00 0.00 0.00 0.00 0.00 0.00 0.00 0.00 0.00 0.00 0.00 0.00 0.00 0.00 0.00 0.00 0.00 0.00 0.00 0.00 0.00 0.00 0.00 0.00 0.00 0.01 0.04 0.11
0.00 0.00 0.00 0.00 0.00 0.00 0.00 0.00 0.00 0.00 0.00 0.00 0.00 0.00 0.00 0.00 0.02 0.03 0.00 0.00 0.00 0.00 0.00 0.00 0.00 0.00 0.00 0.00 0.00 0.00 0.00 0.00 0.00 0.00 0.00 0.00 0.00 0.00 0.00 0.00 0.00 0.00 0.04 0.07
0.00 0.00 0.00 0.00 0.00 0.00 0.00 0.00 0.00 0.00 0.00 0.00 0.00 0.00 0.00 0.00 0.01 0.07 0.03 0.00 0.00 0.00 0.00 0.00 0.00 0.00 0.00 0.00 0.00 0.00 0.00 0.00 0.00 0.00 0.00 0.00 0.00 0.00 0.00 0.00 0.00 0.01 0.01 0.03
0.00 0.00 0.00 0.00 0.00 0.00 0.00 0.00 0.00 0.00 0.00 0.00 0.00 0.00 0.00 0.00 0.00 0.00 0.01 0.00 0.00 0.00 0.00 0.00 0.00 0.00 0.00 0.00 0.00 0.00 0.00 0.00 0.00 0.00 0.00 0.00 0.00 0.00 0.00 0.00 0.00 0.00 0.02 0.06
0.00 0.00 0.00 0.00 0.00 0.00 0.00 0.00 0.00 0.00 0.00 0.00 0.00 0.00 0.00 0.00 0.00 0.00 0.00 0.00 0.00 0.00 0.00 0.00 0.00 0.00 0.00 0.00 0.00 0.00 0.00 0.00 0.01 0.03 0.00 0.00 0.00 0.00 0.00 0.00 0.00 0.00 0.01 0.02
0.00 0.00 0.00 0.00 0.00 0.00 0.00 0.00 0.00 0.00 0.00 0.00 0.00 0.00 0.00 0.00 0.00 0.00 0.00 0.00 0.00 0.00 0.00 0.00 0.00 0.00 0.00 0.00 0.00 0.00 0.00 0.00 0.02 0.03 0.02 0.00 0.00 0.00 0.00 0.00 0.00 0.00 0.00 0.02
0.00 0.00 0.00 0.00 0.00 0.00 0.00 0.00 0.00 0.00 0.00 0.00 0.00 0.00 0.00 0.00 0.00 0.00 0.00 0.00 0.00 0.00 0.00 0.00 0.00 0.00 0.00 0.00 0.00 0.00 0.00 0.00 0.00 0.00 0.00 0.01 0.00 0.00 0.00 0.00 0.00 0.00 0.01 0.03
0.00 0.00 0.00 0.00 0.00 0.00 0.00 0.00 0.00 0.00 0.00 0.00 0.00 0.00 0.00 0.00 0.00 0.00 0.01 0.00 0.00 0.00 0.00 0.00 0.00 0.00 0.00 0.01 0.01 0.00 0.01 0.00 0.00 0.00 0.00 0.00 0.01 0.00 0.00 0.00 0.00 0.00 0.01 0.02
0.00 0.00 0.00 0.00 0.00 0.00 0.00 0.00 0.00 0.00 0.00 0.00 0.00 0.00 0.00 0.00 0.00 0.00 0.00 0.00 0.00 0.00 0.00 0.00 0.00 0.00 0.00 0.02 0.02 0.01 0.03 0.01 0.02 0.00 0.01 0.01 0.01 0.00 0.03 0.00 0.00 0.01 0.02 0.01
0.00 0.00 0.00 0.00 0.00 0.01 0.00 0.00 0.00 0.00 0.00 0.00 0.00 0.00 0.00 0.00 0.00 0.00 0.00 0.00 0.00 0.00 0.00 0.00 0.00 0.00 0.00 0.00 0.02 0.04 0.01 0.03 0.06 0.07 0.06 0.03 0.01 0.00 0.01 0.00 0.02 0.16 0.13 0.06
0.00 0.00 0.00 0.00 0.00 0.00 0.00 0.00 0.00 0.00 0.00 0.00 0.00 0.00 0.00 0.00 0.00 0.00 0.00 0.00 0.00 0.00 0.00 0.00 0.00 0.00 0.00 0.00 0.00 0.06 0.06 0.12 0.16 0.13 0.08 0.06 0.07 0.01 0.01 0.02 0.01 0.05 0.04 0.08
0.00 0.00 0.00 0.00 0.00 0.00 0.00 0.00 0.00 0.00 0.00 0.00 0.00 0.00 0.00 0.00 0.00 0.00 0.00 0.00 0.00 0.00 0.00 0.00 0.00 0.00 0.00 0.00 0.00 0.01 0.04 0.12 0.19 0.25 0.23 0.16 0.11 0.08 0.08 0.07 0.03 0.02 0.01 0.00
0.00 0.00 0.00 0.00 0.00 0.00 0.00 0.00 0.00 0.00 0.00 0.00 0.00 0.00 0.00 0.00 0.00 0.00 0.00 0.00 0.00 0.00 0.00 0.00 0.00 0.00 0.00 0.00 0.00 0.00 0.03 0.17 0.23 0.34 0.31 0.16 0.08 0.12 0.10 0.06 0.05 0.01 0.00 0.00
0.00 0.00 0.00 0.00 0.00 0.00 0.00 0.00 0.00 0.00 0.00 0.00 0.00 0.00 0.00 0.00 0.00 0.00 0.00 0.00 0.00 0.00 0.00 0.00 0.00 0.00 0.00 0.00 0.00 0.00 0.03 0.09 0.29 0.32 0.24 0.08 0.09 0.07 0.05 0.06 0.06 0.07 0.02 0.01
MSLP
1001.83 1001.54 1000.54 999.75 999.23 999.21 999.81 999.92 999.47 999.23 999.08 999.40 999.20 998.73 997.99 997.84 997.94 998.24 998.88 999.48 999.69 1000.51 1001.37 1002.34 1003.61 1004.74 1005.61 1006.79 1008.00 1008.54 1010.02 1011.08 1011.39 1012.23 1012.88 1013.17 1013.42 1013.57 1013.54 1013.92 1014.63 1015.00 1015.21 1015.13
1001.42 1000.46 1000.03 1000.00 999.73 999.68 1000.08 999.94 999.62 999.20 998.80 999.13 998.76 997.87 997.13 996.77 997.03 997.50 997.70 998.36 998.91 999.66 1000.62 1002.12 1003.19 1004.25 1005.29 1006.39 1007.18 1008.23 1009.17 1010.63 1011.14 1011.69 1012.23 1012.56 1012.91 1013.30 1013.46 1014.22 1015.03 1013.95 1015.31 1015.25
1000.39 999.69 999.41 999.99 999.85 999.75 999.68 999.54 999.39 999.17 998.99 999.08 998.06 997.20 996.34 996.01 996.89 997.19 997.24 997.33 997.74 998.45 999.82 1001.16 1002.58 1003.61 1004.69 1006.03 1007.22 1008.05 1008.78 1009.65 1010.24 1010.73 1011.48 1012.15 1012.88 1013.35 1013.86 1014.02 1014.50 1015.30 1015.35 1014.51
1000.02 999.65 999.66 999.66 999.74 999.94 999.44 999.12 998.95 999.27 999.30 998.78 998.28 997.11 996.03 996.34 996.48 996.52 996.47 996.52 996.73 997.59 998.76 1000.34 1001.58 1003.21 1004.37 1005.42 1006.60 1007.53 1008.42 1009.40 1010.06 1010.67 1011.85 1012.05 1012.38 1013.09 1013.49 1013.80 1014.21 1014.57 1014.99 1014.27
1000.00 999.37 999.68 999.68 999.66 999.54 999.51 999.28 999.26 999.53 999.38 998.94 997.72 996.62 995.89 996.03 996.09 996.36 996.30 996.73 996.78 996.93 997.87 999.40 1000.84 1002.30 1003.59 1004.81 1005.63 1006.98 1007.96 1008.89 1009.54 1010.26 1011.06 1011.70 1012.13 1012.60 1012.78 1013.57 1014.30 1014.59 1014.62 1013.77
1000.01 999.61 999.62 999.64 999.46 999.40 999.63 999.72 999.53 999.26 999.11 998.56 997.36 996.57 995.40 995.78 995.83 996.15 996.17 996.74 996.96 997.00 997.60 998.81 1000.02 1001.73 1003.05 1004.15 1005.29 1006.26 1007.58 1008.54 1009.46 1010.06 1010.59 1011.23 1011.85 1012.35 1012.77 1013.36 1014.02 1014.35 1013.99 1013.73
999.12 998.68 998.77 999.21 999.46 999.23 999.43 999.38 998.94 998.18 998.03 998.30 998.64 996.93 995.81 995.52 995.69 996.01 996.16 996.27 996.84 997.24 997.75 998.71 999.62 1001.11 1002.20 1003.45 1004.68 1005.93 1007.24 1008.30 1009.14 1009.73 1010.38 1010.71 1011.13 1011.94 1012.70 1013.24 1013.61 1013.79 1013.56 1013.00
998.22 997.47 997.77 998.06 998.88 998.87 998.57 998.47 998.19 997.75 997.44 997.17 997.02 996.34 995.68 995.67 995.82 996.28 996.17 996.37 996.99 997.40 997.74 998.64 999.53 1000.50 1001.69 1002.93 1003.96 1005.24 1006.68 1007.70 1008.63 1009.31 1009.89 1010.28 1010.94 1011.91 1012.43 1013.27 1013.37 1013.01 1012.61 1012.73
998.60 997.81 997.80 998.49 998.76 999.00 998.62 998.17 997.85 997.67 997.50 997.13 996.57 996.45 997.16 996.98 996.65 996.74 996.72 996.96 997.24 997.44 997.71 998.62 999.52 1000.34 1001.49 1002.53 1003.66 1004.78 1006.28 1007.23 1008.12 1008.89 1009.50 1010.02 1010.65 1011.59 1012.27 1012.97 1012.93 1012.54 1012.25 1012.49
999.82 999.20 998.53 998.15 998.39 998.83 998.84 998.65 998.15 997.67 997.73 997.52 996.93 997.44 998.69 998.47 998.02 997.67 997.88 998.39 998.28 998.04 998.03 998.38 999.16 1000.04 1001.01 1002.14 1003.51 1004.64 1005.90 1006.86 1007.74 1008.28 1009.03 1009.66 1010.31 1011.05 1011.70 1012.16 1012.56 1012.29 1012.13 1012.50
1000.65 1000.20 999.57 998.91 998.22 997.93 997.83 998.19 998.44 998.38 998.40 997.92 997.49 997.59 997.69 998.45 998.44 998.50 998.83 999.68 999.65 999.28 998.81 998.62 999.05 999.96 1000.94 1001.97 1003.17 1004.32 1005.57 1006.52 1007.41 1007.85 1008.38 1009.06 1009.76 1010.38 1010.94 1011.27 1011.70 1011.90 1012.22 1012.56
1001.17 1001.05 1000.21 999.56 998.89 998.51 998.19 997.91 998.11 998.24 998.70 998.40 998.57 998.42 998.25 999.10 999.96 999.52 1000.18 1000.73 1001.03 1000.78 1000.09 999.33 999.03 999.73 1000.83 1001.96 1002.98 1003.96 1004.96 1005.92 1006.95 1007.55 1008.06 1008.66 1009.15 1009.77 1010.27 1010.96 1011.44 1011.96 1011.93 1012.47
1002.83 1001.91 1000.98 1000.23 999.48 998.22 998.81 998.19 998.41 998.45 998.67 998.63 998.56 998.10 998.91 999.83 1000.31 1001.80 1002.43 1001.92 1002.12 1001.81 1001.30 1000.58 999.96 999.63 1000.56 1001.58 1002.62 1003.53 1004.59 1005.53 1006.47 1007.23 1007.79 1008.34 1008.82 1009.15 1009.56 1010.25 1010.78 1011.51 1011.63 1012.33
1004.00 1003.42 1002.86 1002.02 1001.09 1000.26 1000.05 999.59 999.46 999.62 999.11 999.07 999.18 998.27 998.99 1001.64 1002.98 1003.76 1003.80 1003.03 1002.87 1002.68 1002.30 1002.05 1001.41 1001.03 1000.71 1001.43 1002.27 1003.15 1004.23 1005.17 1006.02 1006.67 1007.30 1007.90 1008.47 1008.80 1008.90 1009.53 1010.29 1010.82 1011.24 1011.91
1004.25 1003.96 1003.58 1002.86 1002.24 1001.53 1000.76 1000.32 1000.14 1000.02 1000.00 999.79 999.44 999.08 999.63 1001.00 1002.87 1003.84 1002.97 1003.90 1003.36 1003.32 1003.21 1002.91 1002.81 1002.39 1002.11 1001.70 1002.33 1002.93 1003.68 1004.80 1005.42 1006.16 1006.89 1007.48 1008.03 1008.55 1008.85 1009.00 1009.57 1010.07 1010.60 1011.39
1003.58 1003.81 1003.87 1003.40 1002.95 1002.26 1001.43 1000.95 1000.54 1000.30 1000.17 999.97 999.99 999.83 1000.10 1000.59 1002.05 1003.64 1004.62 1003.68 1004.01 1004.19 1004.14 1003.92 1003.42 1003.03 1002.52 1002.28 1002.28 1002.97 1003.61 1004.23 1004.92 1005.66 1006.59 1007.28 1007.64 1008.22 1008.69 1008.79 1009.13 1009.54 1009.99 1010.51
1003.88 1003.99 1004.19 1003.61 1003.54 1002.82 1001.90 1001.28 1000.53 1000.16 1000.23 1000.34 1000.22 1000.40 1000.96 1001.62 1002.59 1003.32 1003.73 1004.28 1004.89 1004.90 1004.83 1004.55 1004.12 1003.61 1003.15 1002.70 1002.26 1002.50 1003.26 1004.09 1004.67 1005.37 1006.11 1006.96 1007.61 1007.96 1008.27 1008.50 1008.85 1009.18 1009.62 1010.14
1003.81 1004.25 1004.63 1004.29 1004.27 1003.06 1002.18 1001.45 1000.77 1000.87 1001.25 1001.54 1001.39 1001.86 1002.39 1003.04 1003.39 1003.85 1004.12 1004.68 1005.10 1005.04 1004.94 1004.68 1004.35 1004.19 1003.74 1003.02 1002.54 1002.93 1002.47 1003.27 1004.16 1004.95 1005.73 1006.42 1007.08 1007.64 1008.10 1008.50 1008.64 1009.01 1009.35 1009.80
1003.65 1004.24 1004.50 1004.64 1004.17 1003.31 1002.73 1001.86 1002.04 1002.19 1002.21 1002.82 1003.20 1003.59 1003.89 1004.24 1004.44 1004.60 1005.14 1005.16 1004.83 1004.72 1004.89 1004.86 1004.55 1004.23 1003.96 1003.40 1002.63 1002.22 1002.37 1002.71 1003.41 1004.34 1005.07 1005.72 1006.39 1007.16 1007.58 1008.02 1008.49 1008.79 1009.06 1009.49
1004.11 1004.81 1005.21 1005.04 1004.63 1003.96 1003.45 1003.51 1003.88 1003.82 1003.98 1004.76 1005.01 1005.24 1005.55 1005.70 1005.53 1005.66 1005.86 1005.72 1005.45 1005.13 1004.95 1004.95 1004.76 1004.31 1003.71 1003.38 1003.20 1002.17 1002.37 1002.55 1003.00 1003.50 1004.33 1005.07 1005.74 1006.28 1006.57 1006.66 1006.90 1007.77 1008.43 1008.76
1004.26 1004.65 1004.95 1004.88 1004.83 1004.67 1005.32 1004.85 1004.67 1005.23 1006.37 1006.33 1006.42 1006.55 1006.75 1006.83 1006.80 1006.36 1006.19 1005.88 1005.80 1005.49 1005.09 1004.86 1004.75 1004.30 1003.66 1003.45 1003.32 1002.87 1002.29 1002.46 1002.41 1003.11 1003.69 1004.43 1004.93 1005.32 1005.61 1006.26 1006.64 1007.07 1007.82 1008.26
1005.37 1005.45 1005.37 1005.34 1005.40 1006.03 1007.19 1006.99 1007.28 1006.98 1007.07 1007.11 1007.11 1007.17 1007.14 1007.17 1007.01 1006.76 1006.49 1006.15 1005.83 1005.65 1005.19 1004.77 1004.45 1004.31 1003.91 1003.50 1003.29 1003.27 1002.36 1002.15 1002.30 1002.61 1003.12 1003.58 1004.00 1004.43 1004.91 1005.49 1006.07 1006.69 1007.28 1007.68
1005.85 1005.86 1006.43 1006.82 1006.43 1006.65 1007.30 1007.65 1007.92 1007.88 1008.04 1008.22 1008.22 1007.71 1007.19 1006.95 1006.85 1006.77 1006.46 1006.15 1005.78 1005.62 1005.16 1004.65 1004.23 1004.00 1003.86 1003.28 1003.05 1002.89 1002.81 1002.79 1002.53 1002.48 1002.56 1002.91 1003.41 1003.83 1004.26 1004.93 1005.44 1006.11 1006.70 1007.12
1006.51 1007.09 1007.72 1007.93 1007.59 1007.63 1007.87 1008.37 1008.56 1008.64 1008.45 1008.28 1008.30 1008.01 1007.72 1007.30 1006.97 1006.81 1006.35 1005.85 1005.48 1005.17 1004.75 1004.37 1003.89 1003.70 1003.61 1003.34 1003.16 1003.05 1002.95 1003.13 1003.14 1002.57 1002.87 1003.08 1003.37 1003.75 1003.96 1004.59 1005.21 1005.62 1006.13 1006.57
1008.15 1008.31 1008.80 1008.86 1008.81 1009.22 1008.90 1009.06 1009.28 1009.36 1009.27 1008.70 1008.35 1007.89 1007.70 1007.72 1007.33 1007.21 1006.72 1006.10 1005.48 1004.97 1004.62 1004.09 1003.61 1003.32 1003.36 1003.21 1003.03 1003.18 1003.27 1003.14 1002.65 1002.27 1002.30 1002.43 1002.82 1003.25 1003.71 1004.46 1005.11 1005.36 1005.42 1005.76
1009.67 1010.33 1010.78 1010.41 1010.84 1010.95 1010.17 1009.99 1009.69 1009.22 1008.85 1008.42 1008.10 1007.86 1007.71 1007.85 1007.51 1007.03 1006.83 1006.16 1005.44 1004.68 1004.22 1003.64 1003.22 1002.86 1002.97 1002.87 1002.59 1003.08 1003.31 1003.14 1002.42 1002.12 1001.75 1001.71 1002.13 1002.69 1003.27 1004.21 1005.13 1006.07 1006.24 1006.20
Thickness
5842 5822 5817 5840 5858 5855 5839 5829 5828 5843 5858 5840 5835 5839 5855 5868 5867 5858 5855 5852 5853 5847 5849 5849 5840 5833 5827 5814 5806 5803 5794 5786 5783 5777 5771 5771 5769 5770 5774 5771 5762 5762 5761 5763
5827 5817 5844 5851 5851 5843 5832 5824 5824 5844 5859 5844 5838 5842 5864 5874 5870 5869 5863 5858 5859 5854 5849 5844 5838 5833 5824 5816 5811 5803 5797 5787 5783 5780 5778 5777 5775 5773 5773 5766 5760 5748 5758 5760
5821 5840 5861 5843 5837 5830 5832 5825 5827 5828 5844 5847 5846 5841 5859 5878 5871 5872 5872 5875 5873 5866 5852 5845 5838 5834 5828 5816 5808 5803 5799 5792 5790 5787 5781 5778 5774 5770 5765 5765 5757 5757 5756 5767
5832 5852 5841 5836 5828 5832 5815 5850 5846 5832 5823 5802 5845 5802 5850 5856 5860 5865 5872 5878 5878 5873 5868 5853 5845 5834 5827 5821 5815 5808 5801 5794 5789 5787 5774 5773 5770 5764 5764 5763 5762 5756 5759 5767
5821 5836 5829 5821 5827 5841 5824 5848 5839 5832 5821 5820 5832 5829 5841 5861 5847 5855 5869 5870 5877 5881 5874 5858 5848 5842 5834 5826 5820 5812 5803 5797 5793 5787 5781 5774 5770 5768 5767 5762 5757 5755 5761 5771
5832 5854 5843 5834 5843 5845 5846 5832 5833 5835 5824 5794 5835 5837 5848 5843 5852 5856 5869 5867 5872 5876 5875 5868 5858 5847 5836 5832 5823 5815 5804 5796 5792 5787 5783 5777 5770 5766 5763 5761 5757 5758 5765 5772
5831 5837 5850 5849 5825 5842 5835 5819 5791 5798 5799 5793 5813 5830 5847 5866 5868 5866 5864 5869 5868 5873 5869 5864 5857 5844 5838 5830 5823 5816 5805 5795 5792 5787 5782 5781 5776 5768 5761 5758 5759 5760 5766 5776
5818 5817 5846 5857 5833 5824 5832 5832 5807 5780 5795 5818 5844 5819 5844 5874 5876 5873 5874 5873 5869 5867 5867 5862 5859 5852 5842 5832 5826 5818 5807 5800 5795 5789 5784 5783 5777 5767 5755 5755 5759 5767 5775 5778
5813 5824 5858 5850 5850 5839 5825 5818 5852 5825 5836 5821 5841 5845 5850 5849 5859 5861 5860 5862 5860 5864 5864 5860 5857 5853 5844 5836 5829 5821 5809 5803 5797 5791 5786 5781 5777 5767 5758 5757 5762 5772 5778 5778
5819 5796 5839 5850 5850 5843 5829 5843 5809 5826 5787 5780 5818 5813 5790 5819 5833 5846 5839 5844 5851 5859 5862 5860 5856 5852 5848 5840 5830 5824 5813 5804 5798 5794 5788 5783 5778 5771 5766 5762 5763 5770 5773 5774
5819 5807 5808 5832 5828 5825 5832 5817 5823 5826 5817 5792 5792 5805 5839 5827 5839 5839 5827 5831 5837 5844 5852 5857 5856 5853 5848 5842 5832 5823 5814 5805 5798 5796 5792 5786 5781 5776 5773 5773 5771 5771 5772 5772
5814 5797 5783 5801 5833 5843 5837 5829 5830 5801 5792 5812 5800 5801 5841 5833 5822 5825 5816 5818 5825 5831 5840 5851 5856 5851 5845 5837 5830 5822 5815 5808 5801 5795 5791 5787 5784 5781 5777 5774 5772 5769 5774 5772
5796 5788 5769 5781 5810 5839 5811 5828 5827 5827 5821 5797 5788 5807 5834 5826 5822 5803 5790 5811 5815 5818 5826 5835 5844 5848 5840 5836 5829 5824 5816 5808 5803 5797 5791 5787 5784 5783 5782 5779 5778 5771 5775 5771
5784 5774 5763 5749 5769 5796 5782 5798 5808 5801 5786 5787 5787 5810 5815 5777 5764 5765 5773 5792 5803 5807 5812 5818 5825 5830 5838 5834 5829 5822 5817 5811 5804 5800 5793 5787 5784 5784 5786 5784 5780 5776 5774 5771
5773 5746 5760 5768 5776 5781 5783 5784 5786 5780 5784 5769 5786 5793 5805 5791 5763 5757 5782 5776 5791 5793 5799 5806 5808 5814 5820 5828 5825 5823 5818 5811 5808 5800 5793 5789 5786 5784 5783 5784 5782 5781 5779 5773
5773 5744 5751 5745 5763 5766 5761 5774 5778 5779 5780 5779 5780 5778 5809 5817 5784 5746 5742 5769 5775 5780 5788 5793 5801 5806 5810 5817 5820 5818 5815 5811 5808 5800 5792 5788 5784 5781 5779 5782 5781 5780 5779 5778
5753 5745 5733 5724 5746 5747 5735 5759 5768 5773 5777 5772 5759 5780 5780 5775 5769 5762 5758 5756 5756 5768 5774 5777 5783 5793 5801 5807 5817 5816 5814 5810 5804 5798 5793 5786 5780 5777 5777 5780 5779 5778 5776 5776
5744 5737 5731 5717 5724 5698 5748 5772 5774 5758 5757 5763 5762 5755 5753 5749 5755 5754 5760 5755 5751 5757 5760 5767 5774 5780 5790 5801 5807 5809 5818 5811 5803 5797 5791 5787 5781 5776 5774 5773 5775 5774 5775 5772
5755 5735 5717 5704 5706 5724 5739 5754 5743 5729 5732 5739 5735 5735 5735 5737 5739 5736 5739 5742 5747 5754 5754 5758 5766 5773 5780 5789 5799 5805 5808 5810 5804 5797 5792 5789 5784 5776 5774 5771 5770 5770 5770 5770
5739 5733 5711 5705 5687 5682 5724 5728 5736 5731 5701 5716 5716 5708 5709 5711 5697 5703 5721 5728 5732 5742 5748 5749 5754 5762 5771 5780 5785 5796 5799 5802 5800 5800 5795 5792 5787 5781 5778 5780 5779 5774 5771 5770
5714 5708 5695 5697 5690 5705 5704 5713 5720 5677 5675 5694 5695 5693 5692 5686 5691 5704 5710 5715 5721 5728 5735 5741 5743 5749 5760 5770 5774 5778 5790 5794 5802 5801 5797 5792 5789 5786 5785 5781 5778 5774 5769 5769
5691 5684 5686 5690 5679 5667 5686 5682 5660 5675 5682 5683 5684 5683 5682 5684 5686 5690 5698 5701 5706 5711 5720 5731 5734 5737 5748 5758 5763 5765 5777 5793 5797 5797 5795 5794 5792 5789 5787 5782 5777 5772 5767 5764
5675 5687 5671 5675 5675 5690 5682 5673 5677 5676 5666 5666 5664 5672 5674 5675 5677 5680 5684 5690 5696 5699 5707 5717 5724 5729 5735 5747 5756 5759 5770 5775 5786 5788 5790 5792 5791 5788 5787 5780 5776 5771 5766 5762
5685 5680 5662 5661 5675 5671 5671 5666 5662 5659 5656 5659 5660 5660 5662 5662 5667 5667 5673 5680 5685 5691 5696 5706 5712 5717 5722 5734 5744 5751 5760 5764 5768 5776 5776 5778 5781 5780 5782 5778 5775 5771 5765 5761
5662 5665 5649 5650 5655 5648 5656 5652 5647 5642 5641 5644 5647 5652 5651 5649 5651 5651 5656 5662 5670 5678 5685 5693 5700 5708 5713 5722 5732 5740 5746 5752 5762 5769 5773 5776 5779 5777 5775 5773 5771 5769 5768 5765
5649 5634 5626 5628 5631 5624 5634 5637 5639 5635 5636 5639 5636 5635 5639 5635 5635 5641 5641 5650 5658 5666 5673 5682 5690 5700 5705 5713 5724 5729 5732 5741 5752 5762 5769 5774 5775 5774 5772 5767 5762 5751 5751 5750